RS-44 & BREEZE-KM R/B (44909 NORAD) Tracking and Keplerian Element Data

This shows tracking and keplerian element data for the satellite.

Feedback or suggestion? Click here.




ElementValue
Catalog44909
NameRS-44 & BREEZE-KM R/B
Epoch Orbit8183
Epoch Day269.7947816
Epoch Year2021
RAAN45.4602
Inclination82.523
Eccentricity0.0216915
Argument of Perigee215.951
Mean Anonmoly142.6835
Mean Motion12.79711113
Decay Rate2.3E-07
L11 44909U 19096E 21269.79478160 .00000023 00000-0 48872-4 0 9991
L22 44909 82.5230 45.4602 0216915 215.9510 142.6835 12.79711113 81838

Live tracking and technical data element details for RS-44 & BREEZE-KM R/B (NORAD 44909). RS-44 & BREEZE-KM R/B can be tracked NOW for your location showing map with azimuth and elevation plus other details from your city location.

Track the satellite on the map from your city or location and see movement details for azimuth, elevation, latitude, longitude, range, height, and movement on the map or in text.







IsCatalogInMostPopularTable: catalog: 44909, numindb: 1095
Update: records affected: 1



GetName: 44909 RS-44 & BREEZE-KM R/B

Hit Count: updated at: Tue, 28 Sep 2021 17:14:51 GMT